Dewpoint
50 49 49 49 49 49 50 49 50 50 49 49 49 49 49 49 49 54 52 54 50 45 46 50 48 43 44 42 37 41 38 38 35 27 25 31 30 29 28 31 30 27 25 23 23 18 20 33 34 28 32 39 41 40
49 49 48 48 49 49 49 49 49 50 50 49 49 49 49 49 49 53 51 55 55 48 48 50 50 50 48 44 45 42 36 41 38 34 35 37 31 33 25 26 34 26 29 28 30 29 32 35 35 39 42 41 41 39
48 48 48 48 48 49 49 49 49 49 50 49 49 49 49 50 50 52 54 54 52 44 44 46 47 50 50 50 48 41 42 46 45 40 36 36 26 34 30 32 30 33 37 32 32 35 36 37 43 44 43 42 42 40
48 48 48 48 49 49 49 48 49 49 49 48 48 48 48 48 50 53 53 54 48 43 36 42 49 48 49 50 50 47 47 48 45 40 36 35 28 37 30 31 31 32 36 33 32 35 40 42 42 43 42 42 41 41
47 47 47 48 48 49 49 48 48 47 47 48 48 49 49 49 49 53 54 52 53 45 37 42 47 48 48 50 50 49 48 47 42 37 33 33 30 36 35 32 32 37 33 32 31 35 36 38 43 42 41 41 42 40
46 46 46 46 47 48 48 48 48 46 47 48 48 49 50 50 50 53 48 52 51 52 43 35 44 45 47 48 49 48 48 47 44 39 36 38 43 35 34 36 39 40 40 38 37 40 42 42 43 42 41 40 35 27
46 46 46 46 46 47 48 48 48 47 46 48 48 49 49 49 50 48 43 49 48 49 40 38 35 42 46 47 45 46 47 46 44 39 36 37 36 40 34 31 37 39 40 39 42 43 41 42 41 41 31 28 27 23
45 45 45 45 46 46 47 47 48 48 47 48 49 50 50 49 50 49 50 49 50 47 41 36 35 36 45 37 38 43 39 43 43 40 38 36 37 34 33 39 40 40 40 41 44 41 41 41 36 30 24 23 23 23
45 45 45 45 45 45 46 47 48 48 48 48 49 50 48 47 45 50 48 48 52 46 37 34 34 33 41 40 38 36 41 34 40 36 36 38 35 36 37 38 40 40 40 41 41 39 40 38 25 23 23 25 24 25
45 45 45 45 45 45 46 47 48 48 48 49 47 43 41 43 47 49 46 43 42 41 41 34 38 36 41 34 34 35 34 34 34 36 39 34 36 39 39 41 39 39 40 40 37 35 32 29 27 26 26 27 26 26
45 45 45 46 46 46 46 47 48 48 48 46 42 39 44 47 45 41 37 36 38 36 39 38 36 37 37 35 35 35 34 33 32 30 35 30 32 34 37 38 39 40 40 36 32 32 30 30 28 29 30 28 27 25
46 46 46 45 45 46 46 47 47 46 45 45 44 45 43 40 37 36 35 35 35 35 35 35 36 39 37 39 35 34 33 33 30 34 33 30 30 36 37 34 31 28 29 30 31 31 30 27 28 26 25 26 26 26
45 46 46 45 45 44 45 45 46 46 45 43 39 36 38 33 33 35 33 33 33 33 34 34 34 34 36 37 33 33 32 31 34 32 30 30 36 30 27 28 28 30 31 29 27 28 27 25 26 24 24 23 22 26
45 44 45 45 44 44 44 44 45 43 41 36 34 32 33 30 31 31 32 32 33 33 33 33 33 33 33 33 32 31 32 32 29 26 23 32 37 33 32 31 28 28 29 28 27 27 26 26 26 24 23 22 19 23
43 44 45 44 44 44 44 43 43 41 37 33 32 29 29 30 32 32 32 33 33 35 34 33 33 34 32 31 31 30 27 25 27 27 30 32 35 34 31 28 26 26 28 28 28 27 25 24 22 25 24 23 28 30
42 43 43 43 43 43 43 42 40 37 34 33 32 30 32 31 32 32 32 32 35 34 34 33 32 31 29 30 27 27 26 25 28 32 31 33 32 29 29 27 27 29 29 28 28 28 27 25 24 26 27 27 26 26
42 42 44 44 44 43 42 39 34 32 30 30 30 32 32 32 32 32 33 33 37 33 31 32 25 25 30 27 27 31 28 31 33 33 32 31 29 30 30 31 30 30 30 30 30 30 28 26 23 25 27 29 27 27
41 43 44 43 43 41 37 38 34 30 28 31 30 31 32 32 32 33 33 34 34 31 32 29 30 27 26 24 26 31 31 32 32 32 32 30 30 29 29 28 30 28 28 28 27 28 26 24 27 28 29 30 28 27
41 43 43 43 42 36 33 34 34 26 29 30 31 32 31 32 32 33 33 34 33 32 31 28 23 23 27 29 32 32 32 30 30 30 30 29 29 29 29 29 28 28 28 29 29 29 29 29 29 29 29 27 25 24
42 42 42 41 40 33 31 31 35 28 28 29 31 31 30 30 31 32 32 33 32 32 30 23 23 25 27 28 29 27 27 28 26 25 27 28 29 29 29 29 29 29 29 29 28 25 27 28 28 28 24 29 30 29
40 40 39 37 36 33 33 31 31 32 29 30 31 30 28 30 29 31 32 32 32 30 24 26 31 32 28 28 27 27 28 27 26 24 24 25 26 27 27 27 28 27 25 24 21 25 23 25 28 28 28 32 31 31
39 39 33 36 32 32 32 32 32 31 30 29 29 29 27 27 27 28 30 28 29 25 25 24 29 28 28 29 28 29 30 29 28 26 24 25 26 26 26 27 25 23 23 21 25 26 28 26 28 28 30 27 28 29
38 37 34 33 29 29 25 32 31 29 25 27 29 25 25 26 27 29 25 26 27 27 28 28 29 31 32 30 29 30 29 28 28 27 25 26 25 22 23 24 21 21 23 25 26 26 26 26 28 29 30 29 31 30
38 33 29 27 27 25 28 28 31 28 26 26 26 23 22 24 25 23 15 21 29 29 29 28 27 29 28 27 26 25 25 26 25 23 24 22 21 22 22 21 21 21 20 21 21 20 21 21 22 23 25 26 28 28
29 20 27 15 26 20 14 16 23 21 16 18 21 18 21 22 12 9 12 23 26 28 29 29 27 29 28 27 26 25 23 22 21 21 18 21 15 16 18 19 18 16 16 15 14 14 14 15 16 18 20 22 24 25
23 21 24 20 18 18 17 18 16 16 16 24 23 20 22 22 17 10 21 25 26 26 27 27 27 25 25 24 23 21 19 21 20 15 20 18 16 12 9 9 10 9 12 13 13 10 11 12 13 14 15 17 21 21
17 19 25 28 28 26 26 27 26 25 21 21 16 21 21 17 13 19 24 25 26 26 25 25 25 24 23 24 21 18 15 14 12 15 18 15 13 13 11 9 7 9 10 10 11 10 10 10 11 12 14 16 18 15
25 23 21 25 27 28 24 24 24 23 24 25 23 18 16 10 14 20 22 25 26 23 22 22 22 22 21 18 15 10 8 8 8 16 14 10 8 7 3 0 2 11 4 4 8 8 8 11 11 13 14 15 11 11
26 28 27 23 23 23 24 23 23 26 28 23 17 16 18 18 17 18 19 21 23 22 18 16 12 12 14 14 8 3 2 1 -1 -6 -9 -11 -9 -2 3 -3 -4 1 3 6 7 8 9 11 15 14 13 11 8 7
22 24 18 16 18 21 25 26 26 27 27 28 21 20 18 15 15 16 16 17 16 15 15 11 7 7 -3 -4 -6 1 3 -8 -4 -6 -11 -9 -4 -2 -5 -2 1 0 2 5 2 2 6 8 11 8 8 7 5 3
27 27 23 20 23 25 26 27 28 27 27 27 20 15 11 11 13 13 12 11 10 8 6 2 2 -3 -2 -0 -3 -7 -4 2 -0 -5 -6 -7 -9 -13 -11 -6 -5 -4 0 1 -2 1 1 1 2 2 0 0 -0 -1
25 22 19 19 17 24 26 25 24 22 22 19 18 18 12 6 -3 1 6 2 1 -2 -8 -10 -8 -4 -3 -1 -1 -2 -2 -5 -6 -5 -2 -3 -9 -12 -10 -7 -6 -9 -3 -8 -7 -0 -2 -5 -4 -4 -4 -5 -5 -5
11 5 9 0 9 8 7 6 3 3 9 14 12 4 3 1 -2 3 6 0 -3 -7 -8 -9 -12 -12 -8 -8 -9 -10 -5 -10 -10 1 2 2 -4 -5 -9 -9 -8 -13 -16 -14 -12 -5 -9 -9 -9 -7 -7 -8 -8 -8
Lifted_Index
4 4 4 4 4 4 4 4 5 5 5 5 4 3 2 1 -0 -0 -0 -0 0 1 1 1 2 2 2 2 3 3 3 4 4 5 5 5 4 4 4 4 4 4 4 4 4 4 4 4 4 4 4 3 3 3
3 4 4 4 4 4 4 5 5 5 5 5 4 4 2 1 -1 -1 -0 -0 0 1 1 1 1 2 2 2 3 3 3 4 4 4 5 5 4 4 4 4 4 4 4 4 4 4 4 4 4 4 3 3 3 3
3 3 3 3 4 4 4 4 4 4 4 4 4 4 3 1 -1 -1 -1 -1 0 1 1 1 1 1 1 1 2 2 3 2 3 3 4 4 4 4 4 4 4 3 3 3 3 3 3 3 3 3 3 3 3 3
3 3 3 3 4 4 4 4 4 4 4 4 4 4 3 1 -0 -1 -1 -1 0 1 2 1 1 1 1 1 1 1 1 1 1 2 2 3 3 4 4 4 4 3 3 3 3 3 3 3 3 3 3 3 3 3
3 3 3 3 4 4 4 4 4 4 4 4 4 3 3 2 -0 -1 -0 -0 -0 1 1 1 1 1 1 0 -0 0 0 -0 0 0 1 1 2 3 4 4 4 3 3 3 3 3 3 3 3 3 3 3 3 3
4 4 3 3 3 3 4 4 4 4 4 4 3 3 2 1 0 -0 0 -0 -1 -0 1 1 1 1 1 0 -0 -0 -0 -0 -0 0 1 1 2 3 4 4 3 2 2 2 3 2 2 3 3 3 3 3 4 4
5 5 4 4 3 3 3 3 4 4 4 3 3 3 2 1 0 0 1 0 -1 -0 1 1 2 1 0 -0 -1 -1 -1 -0 -0 0 1 1 1 2 3 3 2 2 2 2 2 2 2 2 2 3 3 4 4 4
7 6 5 5 4 4 4 4 3 4 4 3 3 2 2 1 1 1 1 0 -0 0 1 2 2 2 1 -0 -0 -1 -1 -0 0 0 1 1 1 2 2 2 2 2 2 2 2 2 2 2 2 3 3 4 5 5
8 8 7 7 6 5 5 4 4 4 3 3 3 3 2 2 1 1 1 1 0 1 1 2 3 2 1 0 -0 -0 -0 -0 0 1 1 1 1 2 2 2 2 2 2 2 2 2 2 2 2 3 4 5 6 6
9 9 8 8 7 6 6 5 4 4 4 3 3 3 3 2 2 1 1 2 1 2 2 2 2 2 2 1 0 0 0 0 1 1 1 2 2 2 2 2 2 2 2 2 2 2 2 2 3 4 5 6 7 8
9 9 9 8 8 7 6 5 4 4 3 3 3 3 2 2 2 2 2 2 2 2 3 3 2 2 2 1 1 0 1 1 1 1 2 2 3 3 3 3 3 3 3 2 3 3 4 4 5 6 7 8 9 10
9 9 8 8 8 8 7 6 5 4 4 3 3 2 2 2 2 2 2 2 3 3 3 3 3 2 2 1 1 1 1 1 1 2 2 3 3 4 4 4 4 4 4 4 4 4 6 7 7 8 9 9 10 11
9 9 9 8 8 7 7 6 5 4 4 3 3 2 2 2 2 2 2 2 3 3 4 3 3 2 2 1 1 1 1 1 2 2 2 3 4 4 4 5 5 5 5 6 6 7 8 9 9 9 10 11 11 11
9 9 9 9 8 8 7 7 6 5 5 4 3 2 2 2 2 2 3 3 3 4 4 4 3 3 3 2 1 1 1 1 1 2 3 4 5 5 5 6 6 6 7 7 7 8 9 9 10 10 11 11 11 11
8 8 9 9 9 8 8 8 7 6 6 5 4 3 3 3 3 3 4 4 4 4 4 4 3 3 3 2 2 1 1 1 2 3 4 5 5 6 6 7 7 6 7 7 8 8 9 9 10 10 11 11 10 10
7 7 7 7 8 8 8 8 7 7 6 5 5 4 4 3 3 4 4 4 5 5 4 4 3 3 3 2 2 2 2 2 3 5 5 6 6 6 6 7 7 6 6 7 8 9 9 9 10 10 9 9 9 8
6 6 6 6 6 6 7 6 6 6 5 5 4 4 4 4 4 4 4 4 5 5 4 4 3 3 3 2 2 3 3 4 5 6 6 6 6 6 6 7 7 7 8 8 8 9 9 8 8 8 8 7 7 6
6 6 6 5 5 6 5 5 5 4 4 4 4 4 4 4 4 4 4 5 5 5 4 4 4 3 3 3 3 4 4 5 6 6 6 6 7 7 7 7 8 8 8 8 8 7 7 7 7 6 6 6 5 5
6 6 6 6 6 6 5 5 5 4 4 4 4 4 4 4 4 4 5 5 5 5 5 5 4 4 4 4 4 4 5 5 6 6 6 6 6 7 7 7 7 7 7 7 7 6 6 6 6 5 5 5 5 5
7 7 6 6 6 6 6 5 5 5 5 4 4 4 4 4 4 5 5 5 5 5 5 4 4 4 4 4 4 4 4 5 5 5 6 6 6 6 6 6 6 6 6 6 6 6 5 5 5 5 5 4 4 5
7 7 7 7 6 6 6 6 6 5 5 5 4 4 4 4 4 4 4 5 5 4 4 4 4 3 3 3 3 3 4 4 4 5 5 5 5 6 6 6 6 6 5 5 5 5 5 5 5 5 5 4 5 5
7 7 8 7 7 7 7 6 6 6 5 5 4 4 4 4 4 4 4 4 4 4 4 3 3 3 2 2 3 3 3 4 5 5 5 5 5 6 6 6 5 5 5 5 6 6 6 6 6 6 5 5 5 5
7 8 8 8 7 7 7 6 6 6 5 5 4 4 3 3 3 3 3 3 3 3 3 3 2 2 2 2 3 3 4 5 5 5 5 5 5 5 5 5 5 6 6 6 7 7 7 7 7 7 7 6 6 6
7 7 7 7 7 7 6 6 5 5 5 4 3 3 2 2 2 2 2 3 3 3 3 3 3 3 3 3 3 4 4 5 5 5 5 5 5 5 5 6 6 7 7 8 8 8 8 8 8 8 7 7 7 7
5 5 5 5 5 5 4 4 4 3 3 2 2 2 1 1 1 2 2 2 3 3 3 3 3 3 3 3 4 4 4 5 5 5 5 5 6 6 6 7 7 8 8 8 8 8 8 8 8 8 8 8 8 8
3 3 3 3 2 2 2 2 2 2 2 1 1 1 1 1 1 2 2 3 4 4 4 4 4 4 4 4 4 5 5 5 6 6 6 7 7 7 8 8 8 8 10 10 10 9 9 9 9 9 9 9 9 9
2 2 2 2 2 2 1 1 1 1 1 1 1 1 1 1 1 2 4 4 5 5 5 5 5 5 5 5 6 6 7 7 7 8 8 9 9 9 9 9 9 10 12 12 12 11 11 11 10 10 10 11 11 11
2 2 2 2 2 2 2 2 2 2 2 2 2 1 1 2 3 4 5 6 6 6 6 6 6 6 6 7 7 7 8 9 9 9 9 10 10 11 11 12 12 13 13 14 13 13 13 13 12 12 12 12 12 12
2 2 2 2 2 2 2 2 2 2 3 3 2 2 3 3 4 5 6 7 7 6 6 6 7 7 7 8 8 9 9 10 9 9 9 9 10 11 13 13 14 14 14 14 14 14 14 14 14 14 14 13 13 13
3 3 3 2 2 3 3 3 3 3 3 3 3 3 4 4 5 7 7 7 7 7 7 7 8 8 8 9 9 9 10 11 11 11 11 11 12 13 14 14 14 14 14 14 14 14 14 14 14 14 14 14 14 13
3 3 3 3 3 3 4 4 4 4 4 4 4 4 4 5 6 8 8 8 8 8 8 9 9 9 10 10 10 11 11 12 13 13 13 13 14 14 14 15 15 15 15 14 14 14 14 14 14 14 14 14 13 13
3 3 3 3 4 4 4 5 5 5 5 5 5 5 5 6 6 8 9 10 10 10 10 10 10 11 12 12 13 13 14 14 15 15 15 15 15 15 15 15 15 15 15 14 14 14 14 14 15 15 14 14 13 13
4 4 4 4 4 5 5 5 5 5 5 6 6 6 6 6 6 7 10 11 11 10 11 11 12 12 13 13 14 14 15 15 15 15 15 15 15 15 15 15 15 15 15 15 14 14 14 15 15 15 14 14 13 13